Eau Claire, WI

5:15 AM CDT on September 20, 2017 (GMT -0500)
Chippewa Valley Regional

Weather History for KEAU - May, 2012

Change the Weather History Date:

Wednesday, May 23, 2012

  Actual Average Record
Temperature  
Mean Temperature 72 °F 60 °F  
Max Temperature 84 °F 72 °F 94 °F (1925)
Min Temperature 59 °F 48 °F 29 °F (1931)
Degree Days  
Heating Degree Days 0 7  
Month to date heating degree days 121 213  
Since 1 July heating degree days 6425 7853  
Cooling Degree Days 7 1  
Month to date cooling degree days 35 17  
Year to date cooling degree days 49 21  
Growing Degree Days 20 (Base 50)    
Moisture  
Dew Point 45 °F    
Average Humidity 41    
Maximum Humidity 53    
Minimum Humidity 28    
Precipitation  
Precipitation 0.00 in 0.12 in 2.30 in (1975)
Month to date precipitation 2.61 2.52  
Year to date precipitation 9.80 8.70  
Snow  
Snow 0.00 in 0.00 in 0.00 in ()
Month to date snowfall 0.0 0.2  
Since 1 July snowfall 23.8 47.0  
Snow Depth 0.00 in    
Sea Level Pressure  
Sea Level Pressure 29.63 in    
Wind  
Wind Speed 15 mph (SSE)    
Max Wind Speed 29 mph    
Max Gust Speed 38 mph    
Visibility 10 miles    
Events      
T = Trace of Precipitation, MM = Missing Value Source: NWS Daily Summary

Daily Weather History Graph

Daily Weather History Graph

Search for Another Location

Airport or City:

Trip Planner

Search our weather history database for the weather conditions in past years. The results will help you decide how hot, cold, wet, or windy it might be!

Date:

Astronomy

May. 23, 2012 Rise Set
Actual Time 5:28 AM CDT 8:37 PM CDT
Civil Twilight 4:53 AM CDT 9:12 PM CDT
Nautical Twilight 4:08 AM CDT 9:58 PM CDT
Astronomical Twilight 3:13 AM CDT 10:53 PM CDT
Moon 7:31 AM CDT (5/23) 10:58 PM CDT (5/23)
Length of Visible Light 16h 18m
Length of Day
15h 08m
Waxing Crescent, 7% of the Moon is Illuminated
May 23
Waxing Crescent
May 28
First Quarter
Jun 4
Full
Jun 11
Last Quarter
Jun 19
New

Hourly Weather History & Observations

Time (CDT) Temp. Dew Point Humidity Pressure Visibility Wind Dir Wind Speed Gust Speed Precip Events Conditions
12:56 AM 66.0 °F 42.1 °F 42% 29.75 in 10.0 mi SSE 12.7 mph 21.9 mph N/A   Clear
1:56 AM 64.9 °F 42.1 °F 43% 29.73 in 10.0 mi SSE 11.5 mph - N/A   Clear
2:56 AM 63.0 °F 42.1 °F 46% 29.73 in 10.0 mi SSE 9.2 mph - N/A   Clear
3:56 AM 63.0 °F 42.1 °F 46% 29.75 in 10.0 mi South 6.9 mph - N/A   Clear
4:56 AM 60.8 °F 42.8 °F 52% 29.73 in 10.0 mi SE 8.1 mph - N/A   Clear
5:56 AM 59.0 °F 42.1 °F 53% 29.75 in 10.0 mi SE 4.6 mph - N/A   Clear
6:56 AM 60.1 °F 43.0 °F 53% 29.74 in 10.0 mi SE 8.1 mph - N/A   Clear
7:56 AM 63.0 °F 44.1 °F 50% 29.74 in 10.0 mi SSE 10.4 mph - N/A   Clear
8:56 AM 64.9 °F 46.0 °F 50% 29.73 in 10.0 mi South 11.5 mph - N/A   Clear
9:56 AM 66.9 °F 46.9 °F 49% 29.71 in 10.0 mi South 12.7 mph 21.9 mph N/A   Clear
10:56 AM 70.0 °F 48.0 °F 46% 29.70 in 10.0 mi SSE 17.3 mph 21.9 mph N/A   Clear
11:56 AM 73.9 °F 48.9 °F 41% 29.67 in 10.0 mi South 17.3 mph 23.0 mph N/A   Clear
12:56 PM 73.0 °F 48.0 °F 41% 29.62 in 10.0 mi SSE 16.1 mph 26.5 mph N/A   Clear
1:56 PM 78.1 °F 48.0 °F 35% 29.60 in 10.0 mi SSE 20.7 mph 32.2 mph N/A   Clear
2:56 PM 82.9 °F 46.9 °F 28% 29.57 in 10.0 mi SSE 26.5 mph 35.7 mph N/A   Unknown
3:56 PM 82.9 °F 46.9 °F 28% 29.55 in 10.0 mi South 24.2 mph 33.4 mph N/A   Clear
4:56 PM 82.9 °F 46.9 °F 28% 29.53 in 10.0 mi SSE 18.4 mph 28.8 mph N/A   Clear
5:56 PM 81.0 °F 48.0 °F 31% 29.50 in 10.0 mi SSE 24.2 mph 34.5 mph N/A   Clear
6:56 PM 80.1 °F 48.0 °F 32% 29.49 in 10.0 mi SSE 16.1 mph 31.1 mph N/A   Mostly Cloudy
7:56 PM 78.1 °F 46.9 °F 33% 29.48 in 10.0 mi SSE 17.3 mph 27.6 mph N/A   Mostly Cloudy
8:56 PM 75.9 °F 46.0 °F 35% 29.47 in 10.0 mi SSE 20.7 mph 24.2 mph N/A   Scattered Clouds
9:56 PM 75.0 °F 45.0 °F 34% 29.49 in 10.0 mi SSE 16.1 mph 25.3 mph N/A   Partly Cloudy
10:56 PM 73.9 °F 45.0 °F 35% 29.49 in 10.0 mi SSE 15.0 mph 24.2 mph N/A   Clear
11:56 PM 73.9 °F 46.0 °F 37% 29.50 in 10.0 mi South 12.7 mph - N/A   Partly Cloudy